When you browse on this site, cookies collect data to enhance your experience and personalize the content and advertising you see.
Visit our Privacy Policy to learn more. By continuing to use the site, you agree to this use of cookies and data.
  • In Hungary
  • List of Countries
  • For 7 days
  • Water Temperature
  • Satellite Maps
  • Weather Map
  • News
  • Weather Widgets
  • user-avatar
    Login

    Hourly Weather Reno

    Today, 22 February, Friday

    Time Temperature Precipitation Wind Pressure Humidity
    00:00 -9°C° 0 mm 2 mps 638 mmHg 87%
    01:00 -9°C° 0 mm 1 mps 639 mmHg 88%
    02:00 -10°C° 0 mm 1 mps 639 mmHg 88%
    03:00 -10°C° 0 mm 1 mps 639 mmHg 88%
    04:00 -11°C° 0 mm 1 mps 639 mmHg 89%
    05:00 -11°C° 0 mm 1 mps 639 mmHg 88%
    06:00 -11°C° 0 mm 1 mps 640 mmHg 87%
    07:00 -11°C° 0 mm 1 mps 640 mmHg 86%
    08:00 -9°C° 0 mm 1 mps 640 mmHg 81%
    09:00 -7°C° 0 mm 1 mps 641 mmHg 76%
    10:00 -4°C° 0 mm 1 mps 641 mmHg 71%
    11:00 -3°C° 0 mm 1 mps 642 mmHg 69%
    12:00 -2°C° 0 mm 1 mps 642 mmHg 67%
    13:00 -1°C° 0 mm 1 mps 642 mmHg 65%
    14:00 0°C° 0 mm 1 mps 642 mmHg 66%
    15:00 0°C° 0 mm 1 mps 642 mmHg 67%
    16:00 0°C° 0 mm 0 mps 642 mmHg 68%
    17:00 -2°C° 0 mm 0 mps 642 mmHg 71%
    18:00 -2°C° 0 mm 1 mps 642 mmHg 74%
    19:00 -4°C° 0 mm 1 mps 642 mmHg 77%
    20:00 -4°C° 0 mm 1 mps 642 mmHg 78%
    21:00 -4°C° 0 mm 1 mps 643 mmHg 80%
    22:00 -4°C° 0 mm 1 mps 643 mmHg 81%
    23:00 -6°C° 0 mm 2 mps 644 mmHg 80%

    Tomorrow, 23 February, Saturday

    Time Temperature Precipitation Wind Pressure Humidity
    00:00 -6°C° 0 mm 2 mps 644 mmHg 79%
    01:00 -6°C° 0 mm 2 mps 644 mmHg 78%
    02:00 -6°C° 0 mm 2 mps 644 mmHg 77%
    03:00 -6°C° 0 mm 2 mps 644 mmHg 75%
    04:00 -6°C° 0 mm 2 mps 644 mmHg 73%
    05:00 -6°C° 0 mm 2 mps 645 mmHg 71%
    06:00 -6°C° 0 mm 2 mps 645 mmHg 70%
    07:00 -6°C° 0 mm 2 mps 645 mmHg 68%
    08:00 -4°C° 0 mm 2 mps 646 mmHg 67%
    09:00 0°C° 0 mm 1 mps 646 mmHg 67%
    10:00 +2°C° 0 mm 1 mps 647 mmHg 67%
    11:00 +3°C° 0 mm 1 mps 647 mmHg 71%
    12:00 +4°C° 0 mm 1 mps 647 mmHg 75%
    13:00 +5°C° 0 mm 1 mps 646 mmHg 80%
    14:00 +5°C° 0 mm 1 mps 646 mmHg 79%
    15:00 +5°C° 0 mm 1 mps 646 mmHg 78%
    16:00 +5°C° 0 mm 1 mps 646 mmHg 77%
    17:00 +4°C° 0 mm 1 mps 646 mmHg 79%
    18:00 +2°C° 0 mm 1 mps 646 mmHg 81%
    19:00 -1°C° 0 mm 2 mps 646 mmHg 82%
    20:00 -1°C° 0.1 mm 2 mps 646 mmHg 84%
    21:00 -1°C° 0.1 mm 2 mps 646 mmHg 85%
    22:00 -2°C° 0.1 mm 2 mps 646 mmHg 86%
    23:00 -2°C° 0.1 mm 2 mps 646 mmHg 85%

    Day after tomorrow, 24 February, Sunday

    Time Temperature Precipitation Wind Pressure Humidity
    00:00 -2°C° 0.1 mm 2 mps 646 mmHg 85%
    01:00 -2°C° 0.1 mm 2 mps 646 mmHg 84%
    02:00 -2°C° 0 mm 2 mps 646 mmHg 84%
    03:00 -3°C° 0 mm 2 mps 645 mmHg 83%
    04:00 -3°C° 0 mm 2 mps 645 mmHg 83%
    05:00 -3°C° 0 mm 2 mps 645 mmHg 83%
    06:00 -3°C° 0 mm 2 mps 645 mmHg 83%
    07:00 -3°C° 0 mm 2 mps 645 mmHg 83%
    08:00 -1°C° 0 mm 2 mps 645 mmHg 81%
    09:00 +1°C° 0 mm 3 mps 645 mmHg 79%
    10:00 +3°C° 0 mm 3 mps 646 mmHg 77%
    11:00 +3°C° 0 mm 3 mps 645 mmHg 77%
    12:00 +4°C° 0 mm 3 mps 645 mmHg 77%
    13:00 +5°C° 0 mm 4 mps 644 mmHg 76%
    14:00 +5°C° 0 mm 4 mps 644 mmHg 75%
    15:00 +4°C° 0 mm 4 mps 643 mmHg 74%
    16:00 +4°C° 0 mm 4 mps 643 mmHg 72%
    17:00 +3°C° 0 mm 3 mps 643 mmHg 74%
    18:00 +2°C° 0 mm 3 mps 643 mmHg 77%
    19:00 +1°C° 0 mm 3 mps 642 mmHg 79%
    20:00 0°C° 0 mm 3 mps 642 mmHg 78%
    21:00 0°C° 0 mm 3 mps 642 mmHg 77%
    22:00 0°C° 0 mm 3 mps 642 mmHg 77%
    23:00 0°C° 0 mm 3 mps 642 mmHg 75%

    25 February, Monday

    Time Temperature Precipitation Wind Pressure Humidity
    00:00 0°C° 0 mm 3 mps 642 mmHg 74%
    01:00 0°C° 0 mm 3 mps 642 mmHg 73%
    02:00 0°C° 0 mm 3 mps 642 mmHg 73%
    03:00 0°C° 0 mm 3 mps 641 mmHg 73%
    04:00 -1°C° 0 mm 3 mps 641 mmHg 74%
    05:00 -1°C° 0 mm 3 mps 641 mmHg 75%
    06:00 -1°C° 0 mm 3 mps 641 mmHg 75%
    07:00 -1°C° 0 mm 3 mps 641 mmHg 76%
    08:00 0°C° 0 mm 4 mps 642 mmHg 72%
    09:00 +2°C° 0 mm 5 mps 642 mmHg 68%
    10:00 +3°C° 0 mm 6 mps 642 mmHg 64%
    11:00 +4°C° 0 mm 7 mps 642 mmHg 64%
    12:00 +4°C° 0 mm 8 mps 642 mmHg 63%
    13:00 +5°C° 0 mm 9 mps 641 mmHg 63%
    14:00 +3°C° 0 mm 9 mps 641 mmHg 64%
    15:00 +4°C° 0 mm 8 mps 641 mmHg 66%
    16:00 +2°C° 0 mm 8 mps 640 mmHg 67%
    17:00 +2°C° 0 mm 7 mps 640 mmHg 70%
    18:00 +1°C° 0 mm 5 mps 640 mmHg 73%
    19:00 0°C° 0 mm 4 mps 640 mmHg 76%
    20:00 +1°C° 0 mm 5 mps 640 mmHg 76%
    21:00 +1°C° 0 mm 5 mps 640 mmHg 76%
    22:00 +1°C° 0 mm 5 mps 641 mmHg 76%
    23:00 +1°C° 0 mm 5 mps 641 mmHg 76%

    26 February, Tuesday

    Time Temperature Precipitation Wind Pressure Humidity
    00:00 +1°C° 0 mm 6 mps 641 mmHg 76%
    01:00 +1°C° 0 mm 6 mps 641 mmHg 76%
    02:00 +1°C° 0 mm 6 mps 641 mmHg 73%
    03:00 +1°C° 0 mm 6 mps 640 mmHg 71%
    04:00 0°C° 0 mm 7 mps 640 mmHg 68%
    05:00 0°C° 0 mm 7 mps 640 mmHg 68%
    06:00 0°C° 0 mm 8 mps 641 mmHg 67%
    07:00 0°C° 0 mm 9 mps 641 mmHg 66%
    08:00 +2°C° 0 mm 9 mps 641 mmHg 65%
    09:00 +3°C° 0 mm 9 mps 641 mmHg 63%
    10:00 +6°C° 0 mm 10 mps 641 mmHg 62%
    11:00 +6°C° 0 mm 10 mps 641 mmHg 61%
    12:00 +6°C° 0 mm 11 mps 641 mmHg 60%
    13:00 +7°C° 0 mm 11 mps 641 mmHg 59%
    14:00 +6°C° 0 mm 11 mps 641 mmHg 60%
    15:00 +6°C° 0 mm 10 mps 640 mmHg 61%
    16:00 +5°C° 0 mm 9 mps 640 mmHg 62%
    17:00 +5°C° 0 mm 8 mps 640 mmHg 65%
    18:00 +4°C° 0 mm 8 mps 639 mmHg 68%
    19:00 +3°C° 0 mm 7 mps 639 mmHg 71%
    20:00 +3°C° 0.7 mm 6 mps 639 mmHg 75%
    21:00 +3°C° 0.7 mm 5 mps 640 mmHg 78%
    22:00 +4°C° 0.7 mm 4 mps 640 mmHg 81%
    23:00 +3°C° 0.3 mm 5 mps 641 mmHg 80%

    27 February, Wednesday

    Time Temperature Precipitation Wind Pressure Humidity
    00:00 +3°C° 0.3 mm 6 mps 641 mmHg 78%
    01:00 +2°C° 0.3 mm 7 mps 641 mmHg 77%
    02:00 +2°C° 0.3 mm 6 mps 641 mmHg 78%
    03:00 +2°C° 0.3 mm 5 mps 642 mmHg 79%
    04:00 +2°C° 0.3 mm 5 mps 642 mmHg 80%
    05:00 +3°C° 0.4 mm 4 mps 643 mmHg 81%
    06:00 +4°C° 0.4 mm 4 mps 643 mmHg 82%
    07:00 +4°C° 0.4 mm 3 mps 643 mmHg 84%
    08:00 +5°C° 0 mm 5 mps 644 mmHg 78%
    09:00 +5°C° 0 mm 7 mps 644 mmHg 73%
    10:00 +6°C° 0 mm 8 mps 645 mmHg 67%
    11:00 +6°C° 0 mm 9 mps 645 mmHg 66%
    12:00 +7°C° 0 mm 9 mps 645 mmHg 65%
    13:00 +7°C° 0 mm 9 mps 645 mmHg 65%
    14:00 +7°C° 0 mm 8 mps 645 mmHg 65%
    15:00 +6°C° 0 mm 8 mps 644 mmHg 66%
    16:00 +6°C° 0 mm 8 mps 644 mmHg 67%
    17:00 +5°C° 0 mm 6 mps 644 mmHg 71%
    18:00 +6°C° 0 mm 4 mps 644 mmHg 74%
    19:00 +6°C° 0 mm 2 mps 644 mmHg 78%
    20:00 +6°C° 0 mm 2 mps 644 mmHg 79%
    21:00 +5°C° 0 mm 3 mps 644 mmHg 80%
    22:00 +4°C° 0 mm 3 mps 643 mmHg 82%
    23:00 +4°C° 0 mm 3 mps 643 mmHg 82%
    Show more